Weather History for Sonora, TX

Change the Weather History Date:

Monday, February 18, 2013

  Actual Average (KOZA) Record (KOZA)
Temperature  
Mean Temperature 63 °F -  
Max Temperature 75 °F 62 °F 80 °F (2014)
Min Temperature 51 °F 34 °F 41 °F (2014)
Degree Days  
Heating Degree Days 2    
Growing Degree Days 13 (Base 50)    
Moisture  
Dew Point 32 °F    
Average Humidity 45    
Maximum Humidity 82    
Minimum Humidity 8    
Precipitation  
Precipitation 0.00 in - - ()
Sea Level Pressure  
Sea Level Pressure 29.99 in    
Wind  
Wind Speed 14 mph (WSW)    
Max Wind Speed 22 mph    
Max Gust Speed 30 mph    
Visibility 10 miles    
Events      
Averages and records for this station are not official NWS values.
T = Trace of Precipitation, MM = Missing Value Source: NWS Daily Summary

Daily Weather History Graph

Daily Weather History Graph

Search for Another Location

Airport:

Trip Planner

Search our weather history database for the weather conditions in past years. The results will help you decide how hot, cold, wet, or windy it might be!

Date:

Astronomy

Feb. 18, 2013 Rise Set
Actual Time 7:20 AM CST 6:33 PM CST
Civil Twilight 6:55 AM CST 6:57 PM CST
Nautical Twilight 6:27 AM CST 7:25 PM CST
Astronomical Twilight 5:59 AM CST 7:53 PM CST
Moon 12:32 PM CST (2/18) 1:50 AM CST (2/18)
Length of Visible Light 12h 02m
Length of Day
11h 13m
First Quarter, 58% of the Moon is Illuminated
Feb 18
First Quarter
Feb 25
Full
Mar 4
Last Quarter
Mar 11
New
Mar 19
First Quarter

Hourly Weather History & Observations

Time (CST) Temp. Dew Point Humidity Pressure Visibility Wind Dir Wind Speed Gust Speed Precip Events Conditions
12:15 AM 55.4 °F 48.2 °F 77% 29.93 in 10.0 mi South 17.3 mph 23.0 mph N/A   Clear
12:35 AM 55.4 °F 48.2 °F 77% 29.93 in 10.0 mi South 16.1 mph - N/A   Partly Cloudy
12:55 AM 55.4 °F 48.2 °F 77% 29.93 in 10.0 mi South 17.3 mph - N/A   Mostly Cloudy
1:15 AM 57.2 °F 50.0 °F 77% 29.92 in 10.0 mi South 18.4 mph 23.0 mph N/A   Overcast
1:35 AM 57.2 °F 50.0 °F 77% 29.92 in 10.0 mi South 20.7 mph 25.3 mph N/A   Overcast
1:55 AM 57.2 °F 51.8 °F 82% 29.92 in 10.0 mi South 21.9 mph 27.6 mph N/A   Overcast
2:15 AM 57.2 °F 51.8 °F 82% 29.92 in 10.0 mi South 19.6 mph 29.9 mph N/A   Overcast
2:35 AM 57.2 °F 51.8 °F 82% 29.91 in 10.0 mi South 18.4 mph 23.0 mph N/A   Overcast
2:55 AM 57.2 °F 51.8 °F 82% 29.90 in 10.0 mi South 19.6 mph 24.2 mph N/A   Overcast
3:15 AM 57.2 °F 51.8 °F 82% 29.90 in 10.0 mi South 17.3 mph 20.7 mph N/A   Overcast
3:35 AM 57.2 °F 51.8 °F 82% 29.89 in 10.0 mi South 19.6 mph 24.2 mph N/A   Overcast
3:55 AM 57.2 °F 51.8 °F 82% 29.89 in 10.0 mi South 20.7 mph 28.8 mph N/A   Overcast
4:15 AM 57.2 °F 51.8 °F 82% 29.88 in 10.0 mi South 17.3 mph 24.2 mph N/A   Overcast
4:35 AM 57.2 °F 51.8 °F 82% 29.88 in 10.0 mi South 17.3 mph 25.3 mph N/A   Overcast
4:55 AM 57.2 °F 51.8 °F 82% 29.89 in 10.0 mi South 16.1 mph 24.2 mph N/A   Overcast
5:15 AM 57.2 °F 51.8 °F 82% 29.90 in 10.0 mi South 15.0 mph 19.6 mph N/A   Overcast
5:35 AM 57.2 °F 51.8 °F 82% 29.90 in 10.0 mi South 16.1 mph 25.3 mph N/A   Overcast
5:55 AM 57.2 °F 51.8 °F 82% 29.90 in 10.0 mi South 15.0 mph 21.9 mph N/A   Overcast
6:15 AM 57.2 °F 51.8 °F 82% 29.92 in 10.0 mi SSW 13.8 mph 20.7 mph N/A   Overcast
6:35 AM 57.2 °F 51.8 °F 82% 29.93 in 10.0 mi SSW 11.5 mph 19.6 mph N/A   Overcast
6:55 AM 57.2 °F 51.8 °F 82% 29.94 in 10.0 mi SSW 8.1 mph - N/A   Overcast
7:15 AM 57.2 °F 51.8 °F 82% 29.95 in 10.0 mi SSW 11.5 mph 17.3 mph N/A   Overcast
7:35 AM 57.2 °F 51.8 °F 82% 29.98 in 10.0 mi SSW 5.8 mph - N/A   Overcast
7:55 AM 57.2 °F 51.8 °F 82% 29.98 in 10.0 mi SW 6.9 mph - N/A   Overcast
8:15 AM 57.2 °F 51.8 °F 82% 29.98 in 10.0 mi SSW 11.5 mph - N/A   Overcast
8:35 AM 57.2 °F 51.8 °F 82% 29.99 in 10.0 mi SSW 10.4 mph - N/A   Overcast
8:55 AM 57.2 °F 51.8 °F 82% 30.01 in 10.0 mi SW 9.2 mph - N/A   Mostly Cloudy
9:15 AM 59.0 °F 51.8 °F 77% 30.01 in 10.0 mi SSW 9.2 mph - N/A   Partly Cloudy
9:35 AM 60.8 °F 51.8 °F 72% 30.01 in 10.0 mi South 10.4 mph - N/A   Clear
9:55 AM 62.6 °F 50.0 °F 63% 30.01 in 10.0 mi SSW 10.4 mph - N/A   Clear
10:15 AM 62.6 °F 48.2 °F 59% 30.01 in 10.0 mi SW 9.2 mph - N/A   Clear
10:35 AM 64.4 °F 46.4 °F 52% 30.01 in 10.0 mi WSW 8.1 mph - N/A   Clear
10:55 AM 66.2 °F 41.0 °F 40% 30.01 in 10.0 mi West 10.4 mph 16.1 mph N/A   Clear
11:15 AM 69.8 °F 37.4 °F 31% 30.01 in 10.0 mi West 11.5 mph 17.3 mph N/A   Clear
11:35 AM 71.6 °F 32.0 °F 23% 30.01 in 10.0 mi WNW 10.4 mph 19.6 mph N/A   Clear
11:55 AM 73.4 °F 17.6 °F 12% 30.00 in 10.0 mi West 16.1 mph 24.2 mph N/A   Clear
12:15 PM 73.4 °F 14.0 °F 10% 30.00 in 10.0 mi WNW 11.5 mph 27.6 mph N/A   Clear
12:35 PM 73.4 °F 14.0 °F 10% 29.98 in 10.0 mi West 18.4 mph 25.3 mph N/A   Clear
12:55 PM 73.4 °F 12.2 °F 10% 29.98 in 10.0 mi NW 16.1 mph 23.0 mph N/A   Clear
1:15 PM 73.4 °F 12.2 °F 10% 29.97 in 10.0 mi NW 13.8 mph 24.2 mph N/A   Clear
1:35 PM 73.4 °F 10.4 °F 9% 29.97 in 10.0 mi WNW 10.4 mph 24.2 mph N/A   Clear
1:55 PM 75.2 °F 12.2 °F 9% 29.96 in 10.0 mi WNW 10.4 mph 19.6 mph N/A   Clear
2:15 PM 75.2 °F 10.4 °F 8% 29.96 in 10.0 mi West 9.2 mph 21.9 mph N/A   Clear
2:35 PM 75.2 °F 8.6 °F 8% 29.96 in 10.0 mi NW 12.7 mph 20.7 mph N/A   Clear
2:55 PM 75.2 °F 8.6 °F 8% 29.96 in 10.0 mi West 11.5 mph 27.6 mph N/A   Clear
3:15 PM 75.2 °F 8.6 °F 8% 29.96 in 10.0 mi NW 13.8 mph 21.9 mph N/A   Clear
3:35 PM 73.4 °F 8.6 °F 8% 29.97 in 10.0 mi NNW 11.5 mph 21.9 mph N/A   Clear
3:55 PM 75.2 °F 8.6 °F 8% 29.96 in 10.0 mi NNW 13.8 mph 18.4 mph N/A   Clear
4:15 PM 73.4 °F 8.6 °F 8% 29.97 in 10.0 mi NNW 11.5 mph - N/A   Clear
4:55 PM 73.4 °F 6.8 °F 8% 29.99 in 10.0 mi NW 12.7 mph 16.1 mph N/A   Clear
5:15 PM 73.4 °F 8.6 °F 8% 29.99 in 10.0 mi WNW 10.4 mph - N/A   Clear
5:35 PM 71.6 °F 8.6 °F 9% 30.00 in 10.0 mi NW 8.1 mph - N/A   Clear
5:55 PM 71.6 °F 8.6 °F 9% 30.00 in 10.0 mi NNW 11.5 mph 17.3 mph N/A   Clear
6:15 PM 69.8 °F 8.6 °F 9% 30.01 in 10.0 mi NNW 5.8 mph - N/A   Clear
6:35 PM 66.2 °F 12.2 °F 12% 30.03 in 10.0 mi North 11.5 mph 16.1 mph N/A   Clear
6:55 PM 64.4 °F 17.6 °F 16% 30.04 in 10.0 mi NNE 9.2 mph - N/A   Clear
7:15 PM 62.6 °F 17.6 °F 18% 30.06 in 10.0 mi NNE 6.9 mph - N/A   Clear
7:35 PM 60.8 °F 19.4 °F 20% 30.07 in 10.0 mi NNE 9.2 mph - N/A   Clear
7:55 PM 59.0 °F 19.4 °F 22% 30.08 in 10.0 mi North 5.8 mph - N/A   Clear
8:15 PM 57.2 °F 19.4 °F 23% 30.09 in 10.0 mi North 5.8 mph - N/A   Clear
8:35 PM 55.4 °F 19.4 °F 25% 30.10 in 10.0 mi NNE 6.9 mph - N/A   Clear
8:55 PM 55.4 °F 19.4 °F 25% 30.10 in 10.0 mi NNE 8.1 mph - N/A   Clear
9:15 PM 53.6 °F 21.2 °F 28% 30.11 in 10.0 mi NNE 6.9 mph - N/A   Clear
9:35 PM 53.6 °F 21.2 °F 28% 30.12 in 10.0 mi NNE 5.8 mph - N/A   Clear
9:55 PM 53.6 °F 21.2 °F 28% 30.12 in 10.0 mi NNE 9.2 mph - N/A   Clear
10:15 PM 53.6 °F 21.2 °F 28% 30.13 in 10.0 mi NE 9.2 mph - N/A   Clear
10:35 PM 53.6 °F 23.0 °F 30% 30.13 in 10.0 mi NE 10.4 mph - N/A   Clear
10:55 PM 53.6 °F 26.6 °F 35% 30.14 in 10.0 mi NE 8.1 mph - N/A   Clear
11:15 PM 53.6 °F 26.6 °F 35% 30.13 in 10.0 mi NE 11.5 mph - N/A   Clear
11:35 PM 51.8 °F 26.6 °F 38% 30.14 in 10.0 mi ENE 8.1 mph - N/A   Clear
11:55 PM 51.8 °F 28.4 °F 41% 30.14 in 10.0 mi ENE 6.9 mph - N/A   Clear